Regional Weather Roundup
Issued by NWS

Home | Current Version | Previous Version | Text Only | Print | Product List | Glossary Off
Versions: 1 2 3 4 5 6 7 8 9 10 11 12 13 14 15 16 17 18 19 20 21 22 23 24 25 26 27 28 29 30 31 32 33 34 35 36 37 38 39 40 41 42 43 44 45 46 47 48 49 50

000
ASUS45 KSLC 241210
RWRUT

UTAH REGIONAL WEATHER ROUNDUP
NATIONAL WEATHER SERVICE SALT LAKE CITY UT
600 AM MDT SUN SEP 24 2017

UTZ001>011-023>025-241300-

NORTHERN UTAH

CITY           SKY/WX    TMP DP  RH WIND       PRES   REMARKS
BRIGHAM CITY   CLOUDY    47  35  64 N10G16    29.91S
HILL AFB       CLOUDY    43  40  89 S3        29.89S
LOGAN          CLOUDY    43  38  82 N8        29.92S
OGDEN          CLOUDY    44  42  93 SE6       29.89S
SALT LAKE CITY CLOUDY    48  44  86 NW9       29.89S
TOOELE VALLEY  DRIZZLE   43  41  93 N7        29.93S
WENDOVER       CLOUDY    47  31  53 NW18      29.97S
HEBER CITY     MIX PCPN  37  34  87 SE5       29.86S WCI  34
WEST JORDAN    CLOUDY    44  44  99 NW12G20   29.89F

$$

UTZ011>015-024>027-241300-

CENTRAL/NORTHEAST UTAH

CITY           SKY/WX    TMP DP  RH WIND       PRES   REMARKS
PROVO AIRPORT  LGT RAIN  43  41  93 S7        29.90R
MOAB/CANYONLAN PTCLDY    43  40  89 SW6       29.82S
DELTA          CLOUDY    39  37  93 N5        29.95R
PRICE          CLOUDY    40  36  86 NE12      29.84F WCI  33
ROOSEVELT      LGT RAIN  45  41  87 W7        29.88R
VERNAL         MOCLDY    44  42  93 W3        29.84F

$$

UTZ013>016-019>022-027-241300-

SOUTHERN UTAH

CITY           SKY/WX    TMP DP  RH WIND       PRES   REMARKS
BRYCE CANYON   CLOUDY    33  29  85 NW15      29.95R WCI  23
CEDAR CITY     MOCLDY    35  35 100 NE3       29.98R
MILFORD        CLOUDY    38  37  97 S7        29.97R WCI  33
ST GEORGE      CLOUDY    45  36  70 VRB5      29.97R
HANKSVILLE     PTCLDY    46  32  57 W9        29.87R
BLANDING         N/A     39  24  55 S5        29.98R

$$

REGIONAL REPORTS     COLORADO/ARIZONA

CITY           SKY/WX    TMP DP  RH WIND       PRES   REMARKS
CRAIG, CO      CLOUDY    39  36  89 CALM      29.88S
GRAND JUNCTION PTCLDY    42  41  96 S5        29.82R
RIFLE, CO      CLEAR     39  38  96 CALM      29.85R
MONTROSE, CO   CLEAR     39  36  89 SE9       29.89R WCI  33
CORTEZ, CO     CLEAR     35  35 100 NE5       29.94R WCI  31
PAGE, AZ       CLEAR     49  30  48 VRB3      29.90S
GRAND CANYON   CLEAR     25  18  74 CALM      29.99R
KINGMAN, AZ    CLEAR     44  31  60 E10       29.96S
FLAGSTAFF, AZ  CLEAR     33  18  53 VRB3      29.97S

$$

REGIONAL REPORTS    NEVADA/IDAHO/WYOMING

CITY           SKY/WX    TMP DP  RH WIND       PRES   REMARKS
LAS VEGAS, NV  CLEAR     58  32  37 N7        29.95R
ELY, NY        CLOUDY    29  27  92 SE5       30.02S WCI  24
ELKO, NV       CLEAR     31  27  85 W3        30.05R
POCATELLO, ID  PTCLDY    37  33  85 W3        29.99S
BURLEY, ID     MOCLDY    40  33  76 W8        29.99F WCI  34
FORT BRIDGER,  FOG       34  34 100 NE9       29.94F VSB 1/2 WCI  26
EVANSTON, WY   CLOUDY    34  34 100 E12       29.90S WCI  25
ROCK SPRINGS,  CLOUDY    33  31  92 NE24G31   29.91S WCI  20
KEMMERER, WY   LGT SNOW  32  32 100 E26G33    29.92F VSB 1   WCI  18

$$



USA.gov is the U.S. government's official web portal to all federal, state and local government web resources and services.